Location: Bruch
(44.2051°N, 0.4120°E)
Time: 17:14:03
(UTC+00:00)

ADEOS - Pass Details

Date: 29 November 2020
Orbit: 792 x 795 km, 98.9° (Epoch: 22 January)

Event Time Altitude Azimuth Distance (km) Brightness Sun altitude
Rises 04:27:38 0° 16° (NNE) 3,308 6.9 -28.8°
Reaches altitude 10° 04:30:00 10° 19° (NNE) 2,373 6.2 -28.4°
Maximum altitude 04:35:13 68° 103° (ESE) 858 3.8 -27.4°
Drops below altitude 10° 04:40:23 10° 186° (S) 2,354 6.0 -26.5°
Sets 04:42:43 0° 189° (S) 3,279 6.7 -26.1°
